Location: Forst
(46.9333°N, 15.4333°E)
Time: 04:47:49
(UTC+00:00)

Envisat - Pass Details

Date: 27 September 2021
Orbit: 764 x 766 km, 98.2° (Epoch: 26 October)

Event Time Altitude Azimuth Distance (km) Brightness Sun altitude
Rises 02:43:03 0° 31° (NNE) 3,242 7.1 -22.3°
Reaches altitude 10° 02:46:38 10° 58° (ENE) 2,309 6.6 -21.7°
Maximum altitude 02:49:07 14° 87° (E) 2,066 6.2 -21.3°
Drops below altitude 10° 02:51:35 10° 117° (ESE) 2,299 6.0 -20.9°
Sets 02:55:08 0° 143° (SE) 3,219 6.4 -20.3°
